Content
SEND FEEDBACK

Daily
Averages
Monthly
Summary
Canada

CYPRESS HILLS, SASKATCHEWAN


Home > North America > Canada > Saskatchewan
Elevation: 3924 feet     Latitude: 49 40N     Longitude: 109 28W

WEATHER
 
SELECT A DAY
Number of Records: 139,128;   Date Range: 1/1/95 - 9/18/14
 
SHARE

PRINT THIS DATA

[ ← Previous Day ]
WEATHER ALMANAC - FEBRUARY 5, 2013
[ Next Day → ]
[ °C ]   °F
Weather ElementAverageHighLow
Temperature24.7 °F31.8 °F (11:00 pm)19.6 °F (8:00 am)
Dewpoint17.7 °F23.4 °F (11:00 pm)13.6 °F (9:00 am)
Humidity74.1 %89 % (8:00 pm)61 % (12:00 pm)
Barometer29.81 in29.92 in (4:00 am)29.63 in (11:00 pm)
Wind Speed7.1 mph12.7 mph (11:00 pm)
Wind Gust21.9 mph (11:00 pm)
Weather ElementAverage
Wind DirectionWSW (235.2 °)

Weather ElementTotal
Precipitation---
Heating Degree Days39.3 (Base 65)
Averaged from 27 records on February 5, 2013
WEATHER CONDITIONS BREAKOUT
WIND DIRECTION BREAKOUT
WEATHER BY HOUR - FEBRUARY 5, 2013
[ °C ]   °F
Local TimeTemperatureDewpointHumidityBarometerVisibilityWind DirectionWind SpeedGust SpeedPrecipitationEventsConditions
12:00 AM26.1 °F18.5 °F73 %29.88 inNW (320°)8.1 mph
1:00 AM26.4 °F17.1 °F68 %29.89 inNW (320°)8.1 mph
2:00 AM25.9 °F16.3 °F67 %29.89 inNNW (330°)6.9 mph
3:00 AM25.2 °F16.5 °F70 %29.91 inNW (320°)6.9 mph
4:00 AM24.4 °F17.2 °F74 %29.92 inNW (320°)6.9 mph
5:00 AM22.6 °F17.1 °F79 %29.92 inWNW (300°)4.6 mph
6:00 AM20.7 °F16.2 °F83 %29.92 inNNW (330°)3.5 mph
6:00 AM21.0 °F16.0 °F74 %29.92 inNNW (330°)3.5 mph
7:00 AM20.3 °F15.4 °F81 %29.92 inWSW (250°)2.3 mph
8:00 AM19.6 °F14.7 °F81 %29.92 inSouth (180°)3.5 mph
9:00 AM20.5 °F13.6 °F75 %29.91 inSouth (190°)5.8 mph
10:00 AM22.6 °F15.4 °F74 %29.89 inSSW (210°)6.9 mph
11:00 AM23.9 °F16.2 °F72 %29.87 inSouth (190°)6.9 mph
12:00 PM24.4 °F16.0 °F70 %29.85 inSouth (180°)8.1 mph
12:00 PM24.0 °F16.0 °F61 %29.85 inSouth (180°)8.1 mph
1:00 PM25.2 °F15.4 °F67 %29.82 inSouth (180°)9.2 mph
2:00 PM27.7 °F15.8 °F61 %29.78 inSouth (180°)10.4 mph
3:00 PM27.1 °F17.8 °F68 %29.75 inSouth (180°)8.1 mph
4:00 PM25.2 °F18.5 °F76 %29.73 inSouth (170°)6.9 mph
5:00 PM24.4 °F19.2 °F81 %29.73 inSouth (180°)6.9 mph
6:00 PM25.7 °F19.8 °F78 %29.70 inSouth (180°)8.1 mph
6:00 PM26.0 °F20.0 °F68 %29.70 inSouth (180°)8.1 mph
7:00 PM23.0 °F19.4 °F86 %29.70 inSouth (190°)6.9 mph
8:00 PM25.7 °F22.8 °F89 %29.68 inSW (220°)5.8 mph
9:00 PM27.9 °F22.6 °F81 %29.65 inWSW (240°)9.2 mph
10:00 PM28.9 °F21.7 °F74 %29.64 inWSW (250°)10.4 mph
11:00 PM31.8 °F23.4 °F71 %29.63 inWSW (250°)12.7 mph21.9 mph
Hourly data recorded from CWVP, located miles away from Cypress Hills, Saskatchewan







STORIES FROM OUR PARTNERS